Location: Palmerston North
(40.3500°S, 175.6170°E)
Time: 09:10:08
(UTC+13:00)

Cosmos 1933 - Pass Details

Date: 24 January 2019
Orbit: 548 x 564 km, 82.5° (Epoch: 21 February)

Event Time Altitude Azimuth Distance (km) Brightness Sun altitude
Exits shadow 22:58:32 25° 326° (NW) 1,148 4.7 -20.8°
Maximum altitude 23:00:38 52° 260° (W) 713 4.1 -21.1°
Drops below altitude 10° 23:04:43 10° 182° (S) 1,890 6.8 -21.6°
Sets 23:06:59 0° 177° (S) 2,797 7.7 -21.8°
